[[{"header":{"parameterUnit":"m.s-1","parameterCategory":1,"la1":30.2991,"la2":30.254,"lo1":-89.0895,"lo2":-89.0444,"dy":0.0017,"dx":0.0017,"nx":28,"ny":28,"refTime":"2024-07-06T09:00:00:Z","depth":0,"parameterNumber":2,"parameterNumberName":"U-component_of_WINDS"},"data":[0,0,0,0,0,0,0,0,0,0,0,0,0,0,0,0,0,0,0,0,0,0,0,0,0,0,0,0,0,0,0,0,0,0,0,0,0,0,0,0,0,0,0,0,0,0,0,0,0,0,0,0,0,0,0,0,0,0,1.0203,1.0204,0,1.0328,1.0329,1.0331,1.0377,1.0376,1.0376,1.0376,1.0507,1.0511,1.0515,0,0,0,0,0,0,0,0,0,0,0,0,0,1.0007,1.001,1.0202,1.0204,1.0206,1.0328,1.0329,1.0331,1.0377,1.0376,1.0376,1.0375,1.0506,1.051,1.0515,0,0,0,0,0,0,0,0,0,0,0,0,0,1.0108,1.0011,1.0202,1.0243,1.0248,1.0327,1.033,1.0332,1.0377,1.0376,1.0376,1.0375,1.0504,1.051,1.0516,1.0565,0,0,1.0534,1.0536,0,0,0,0,0,0,0,0,1.0102,1.0115,1.0236,1.024,1.0246,1.0336,1.0309,1.041,1.0377,1.0328,1.0376,1.0375,1.0451,1.0461,1.0486,1.0571,1.0576,1.0534,1.0538,1.054,1.0542,0,0,0,0,0,0,0,1.0095,1.011,1.0252,1.0237,1.0244,1.0257,1.027,1.0328,1.0392,1.0332,1.0336,1.035,1.0454,1.048,1.049,1.0578,1.0534,1.0539,1.0543,1.0545,1.0711,1.0712,0,0,0,0,0,0,1.0081,1.0104,1.0248,1.0256,1.0171,1.0261,1.0276,1.0308,1.0391,1.0403,1.0351,1.0352,1.0471,1.0483,1.0494,1.0558,1.054,1.0546,1.0549,1.071,1.0712,1.0713,0,0,0,0,0,0,1.0076,1.0093,1.0243,1.0181,1.0201,1.0265,1.03,1.0311,1.0337,1.0405,1.0417,1.0366,1.0471,1.0486,1.0547,1.0563,1.0548,1.0554,1.0709,1.0711,1.0712,1.0685,0,0,0,0,0,0,1.007,1.0091,1.0109,1.0181,1.0204,1.0292,1.0301,1.0314,1.0347,1.035,1.0422,1.0434,1.0471,1.0538,1.0553,1.0571,1.0558,1.0708,1.071,1.0712,1.0685,1.0685,1.0686,0,0,0,0,0,1.0063,1.0097,1.011,1.0127,1.0228,1.0293,1.0306,1.0348,1.0348,1.0368,1.0411,1.0431,1.0559,1.0544,1.0561,1.0581,1.0707,1.0709,1.0711,1.0684,1.0685,1.0686,0,0,0,0,0,0,1.0026,1.0107,1.0122,1.018,1.0229,1.0301,1.0326,1.0347,1.0398,1.0399,1.045,1.0466,1.0523,1.0558,1.054,1.0634,1.0635,1.064,1.0608,1.0609,1.061,1.06,1.0563,0,0,0,0,0,1.0024,1.0069,1.0138,1.0183,1.0206,1.0262,1.0292,1.032,1.0373,1.0395,1.0443,1.0495,1.0547,1.058,1.0632,1.069,1.0708,1.0713,1.0713,1.0713,1.0717,1.0753,1.0756,1.0719,1.0719,1.0719,0,0,1.0022,1.0072,1.0097,1.0176,1.0218,1.0265,1.0279,1.0328,1.0364,1.0403,1.0463,1.05,1.0562,1.0622,1.0651,1.0653,1.0732,1.0716,1.0715,1.072,1.0755,1.0758,1.0761,1.0721,1.072,1.072,0,0,1.0041,1.0082,1.0124,1.0166,1.0228,1.0265,1.0275,1.0344,1.037,1.0432,1.0462,1.0506,1.0594,1.0638,1.0671,1.0708,1.0729,1.0724,1.0726,1.076,1.0763,1.0766,1.078,1.0784,1.0728,1.0728,1.0728,0,1.003,1.01,1.0144,1.0191,1.0226,1.0263,1.0307,1.0345,1.0421,1.0445,1.0447,1.0559,1.0603,1.0675,1.0684,1.0709,1.0724,1.0716,1.0759,1.0762,1.0765,1.078,1.0785,1.0727,1.0727,1.0727,1.0727,0,1.0084,1.0133,1.016,1.0232,1.027,1.0315,1.0367,1.04,1.0425,1.0463,1.0526,1.058,1.0644,1.0663,1.0688,1.0739,1.0738,1.0748,1.0751,1.0767,1.0781,1.0787,1.0725,1.0726,1.0726,1.0726,0,0,1.0082,1.0179,1.0188,1.0222,1.0294,1.0333,1.0382,1.0443,1.0471,1.0524,1.0566,1.064,1.0651,1.0689,1.072,1.0749,1.0776,1.0756,1.0758,1.0759,1.0837,1.0829,1.0834,1.0791,1.0792,1.0793,1.0832,0,1.0111,1.0197,1.0238,1.0307,1.0353,1.039,1.0432,1.0482,1.0519,1.0565,1.0606,1.0658,1.0667,1.0691,1.0721,1.0766,1.0793,1.0764,1.0832,1.0834,1.0815,1.0842,1.0833,1.0867,1.0838,1.0839,1.084,0,1.0156,1.0207,1.028,1.0348,1.037,1.0406,1.0467,1.051,1.0568,1.0593,1.0636,1.0666,1.072,1.0718,1.0794,1.0773,1.0804,1.0831,1.0833,1.0841,1.0838,1.0851,1.0879,1.0884,1.0849,1.0848,1.0847,0,1.0148,1.0235,1.0291,1.0319,1.04,1.0425,1.046,1.0518,1.0553,1.0606,1.063,1.0689,1.0722,1.0768,1.0814,1.0809,1.0886,1.0888,1.0909,1.0908,1.0924,1.0922,1.0957,1.0943,1.0943,1.0942,1.0942,0,1.0176,1.0219,1.0288,1.0322,1.0373,1.0421,1.047,1.0508,1.0559,1.0602,1.0638,1.0678,1.0736,1.0784,1.0821,1.0879,1.0893,1.0916,1.0925,1.0913,1.091,1.0933,1.0932,1.0944,1.0944,1.0943,1.0943,0,1.0175,1.0223,1.0286,1.0358,1.0377,1.0411,1.0473,1.0508,1.0547,1.0602,1.0617,1.0679,1.0738,1.0788,1.0865,1.089,1.095,1.0961,1.093,1.0935,1.0954,1.0951,1.1005,1.1015,1.0993,1.0993,1.0994,0,1.019,1.0224,1.0299,1.0331,1.0365,1.0415,1.0451,1.05,1.0536,1.0606,1.0634,1.0694,1.0746,1.0838,1.0891,1.095,1.0964,1.0978,1.0973,1.096,1.0965,1.0962,1.0966,1.0978,1.0978,1.0978,1.0978,0,1.0211,1.0233,1.0283,1.0342,1.0384,1.0433,1.0483,1.0506,1.0566,1.0605,1.0665,1.0704,1.0784,1.0844,1.091,1.0948,1.0974,1.098,1.0988,1.0976,1.0957,1.0968,1.0931,1.0978,1.0978,1.0978,1.0978,1.0978,1.0219,1.0251,1.031,1.0365,1.0408,1.0454,1.0491,1.0535,1.0585,1.0653,1.068,1.0741,1.0801,1.0892,1.093,1.098,1.0984,1.0995,1.0999,1.1001,1.0999,1.0948,1.0992,1.0992,1.0992,1.0992,1.0992,0,1.0242,1.0282,1.0332,1.0401,1.0445,1.0464,1.0521,1.0557,1.061,1.0663,1.0713,1.0783,1.0842,1.09,1.0963,1.0992,1.1005,1.1007,1.1005,1.1014,1.0992,1.0978,1.0995,1.0995,1.0995,1.0995,1.0995,1.0995,1.026,1.0316,1.0346,1.0425,1.0465,1.0525,1.0556,1.0599,1.0642,1.0718,1.0767,1.0804,1.086,1.0927,1.0983,1.0999,1.1021,1.1019,1.1038,1.1016,1.1015,1.1014,1.1002,1.1023,1.1023,1.1056,1.1056,1.1057]},{"header":{"parameterUnit":"m.s-1","parameterCategory":1,"la1":30.2991,"la2":30.254,"lo1":-89.0895,"lo2":-89.0444,"dy":0.0017,"dx":0.0017,"nx":28,"ny":28,"refTime":"2024-07-06T09:00:00:Z","depth":0,"parameterNumber":3,"parameterNumberName":"V-component_of_WINDS"},"data":[0,0,0,0,0,0,0,0,0,0,0,0,0,0,0,0,0,0,0,0,0,0,0,0,0,0,0,0,0,0,0,0,0,0,0,0,0,0,0,0,0,0,0,0,0,0,0,0,0,0,0,0,0,0,0,0,0,0,-0.5384,-0.5384,0,-0.5341,-0.534,-0.534,-0.5382,-0.5383,-0.5385,-0.5387,-0.5338,-0.5335,-0.5332,0,0,0,0,0,0,0,0,0,0,0,0,0,-0.5502,-0.55,-0.5384,-0.5384,-0.5383,-0.5341,-0.534,-0.534,-0.5381,-0.5383,-0.5385,-0.5387,-0.5339,-0.5336,-0.5332,0,0,0,0,0,0,0,0,0,0,0,0,0,-0.5454,-0.5499,-0.5384,-0.5399,-0.54,-0.5341,-0.534,-0.5339,-0.5381,-0.5383,-0.5386,-0.5388,-0.534,-0.5336,-0.5332,-0.5255,0,0,-0.5319,-0.5317,0,0,0,0,0,0,0,0,-0.5457,-0.545,-0.5397,-0.5398,-0.5399,-0.5369,-0.5364,-0.5311,-0.538,-0.5388,-0.5387,-0.539,-0.5346,-0.5342,-0.5328,-0.5252,-0.525,-0.5318,-0.5316,-0.5314,-0.5313,0,0,0,0,0,0,0,-0.546,-0.5452,-0.5367,-0.5397,-0.5397,-0.5407,-0.5403,-0.5354,-0.5353,-0.5388,-0.5391,-0.5385,-0.5347,-0.5332,-0.5327,-0.525,-0.5318,-0.5315,-0.5312,-0.531,-0.5112,-0.511,0,0,0,0,0,0,-0.5462,-0.5454,-0.5368,-0.5366,-0.5435,-0.5403,-0.5399,-0.5376,-0.5354,-0.5353,-0.5383,-0.5387,-0.5338,-0.5332,-0.5325,-0.5235,-0.5314,-0.531,-0.5307,-0.5115,-0.5112,-0.5109,0,0,0,0,0,0,-0.5465,-0.5454,-0.537,-0.5411,-0.5401,-0.5399,-0.5373,-0.5374,-0.5359,-0.5351,-0.535,-0.5367,-0.534,-0.5331,-0.5273,-0.5234,-0.5308,-0.5304,-0.5118,-0.5114,-0.511,-0.5054,0,0,0,0,0,0,-0.5468,-0.5455,-0.5425,-0.541,-0.5399,-0.5318,-0.537,-0.5371,-0.5352,-0.5357,-0.5336,-0.5335,-0.5341,-0.5279,-0.5269,-0.523,-0.5301,-0.5122,-0.5116,-0.5112,-0.5059,-0.5048,-0.5039,0,0,0,0,0,-0.5472,-0.541,-0.5424,-0.5413,-0.5362,-0.5316,-0.531,-0.5319,-0.5348,-0.5319,-0.5314,-0.5336,-0.5241,-0.5273,-0.5261,-0.522,-0.5124,-0.5118,-0.5112,-0.5063,-0.505,-0.5039,0,0,0,0,0,0,-0.5418,-0.5408,-0.5423,-0.5354,-0.5336,-0.5323,-0.5286,-0.5304,-0.5276,-0.5282,-0.5293,-0.5288,-0.5227,-0.5218,-0.5254,-0.5146,-0.5187,-0.5178,-0.5154,-0.5142,-0.5132,-0.5135,-0.5297,0,0,0,0,0,-0.5399,-0.5363,-0.5356,-0.5296,-0.5286,-0.5288,-0.5268,-0.5277,-0.5258,-0.525,-0.5241,-0.5221,-0.5187,-0.5164,-0.5132,-0.5059,-0.5055,-0.5025,-0.5015,-0.5007,-0.4999,-0.4962,-0.4949,-0.5089,-0.5089,-0.5089,0,0,-0.5357,-0.5347,-0.5323,-0.5285,-0.5272,-0.5235,-0.5281,-0.5238,-0.5211,-0.5243,-0.5188,-0.5181,-0.516,-0.5094,-0.5065,-0.5085,-0.496,-0.4999,-0.4993,-0.4989,-0.4954,-0.4941,-0.4929,-0.5085,-0.5086,-0.5086,0,0,-0.5263,-0.5251,-0.5201,-0.5188,-0.5169,-0.5171,-0.516,-0.5145,-0.5142,-0.5088,-0.5112,-0.5079,-0.502,-0.5005,-0.4989,-0.4893,-0.4912,-0.4882,-0.483,-0.4793,-0.4782,-0.4773,-0.4739,-0.4727,-0.4875,-0.4875,-0.4874,0,-0.5213,-0.5159,-0.5173,-0.513,-0.5113,-0.5143,-0.5093,-0.5079,-0.505,-0.5037,-0.5061,-0.4989,-0.4976,-0.4909,-0.4886,-0.4872,-0.4859,-0.4884,-0.4783,-0.4773,-0.4764,-0.4733,-0.472,-0.4871,-0.4872,-0.4872,-0.4872,0,-0.5099,-0.5062,-0.5023,-0.4997,-0.4976,-0.4929,-0.4936,-0.4913,-0.4925,-0.4925,-0.487,-0.4857,-0.4824,-0.4809,-0.4819,-0.4744,-0.4757,-0.4781,-0.4822,-0.4747,-0.4718,-0.4706,-0.4866,-0.4867,-0.4868,-0.4869,0,0,-0.4966,-0.4952,-0.4938,-0.4927,-0.491,-0.4881,-0.4837,-0.4807,-0.4787,-0.4767,-0.473,-0.4681,-0.4705,-0.4687,-0.4696,-0.4665,-0.4592,-0.4693,-0.4693,-0.4675,-0.4509,-0.4491,-0.4476,-0.4605,-0.4603,-0.4601,-0.4511,0,-0.4872,-0.4797,-0.481,-0.4737,-0.4703,-0.4733,-0.4695,-0.4681,-0.468,-0.4651,-0.4651,-0.4616,-0.4649,-0.4639,-0.4609,-0.4607,-0.4558,-0.4613,-0.4571,-0.4569,-0.4575,-0.4461,-0.444,-0.4356,-0.45,-0.4498,-0.4496,0,-0.4751,-0.473,-0.4653,-0.4645,-0.4631,-0.4596,-0.4572,-0.4544,-0.4529,-0.4531,-0.4513,-0.4529,-0.4486,-0.4529,-0.447,-0.4507,-0.4491,-0.4487,-0.4484,-0.448,-0.4527,-0.4453,-0.4329,-0.4317,-0.4478,-0.448,-0.4481,0,-0.4663,-0.4615,-0.4564,-0.4554,-0.4542,-0.4517,-0.4511,-0.4499,-0.4481,-0.4459,-0.4448,-0.4421,-0.4405,-0.4384,-0.4393,-0.4423,-0.4333,-0.4376,-0.4333,-0.4333,-0.4311,-0.4312,-0.4183,-0.4301,-0.4302,-0.4302,-0.4302,0,-0.4556,-0.4508,-0.4524,-0.4493,-0.4441,-0.4457,-0.4405,-0.4403,-0.4392,-0.4361,-0.4385,-0.4355,-0.4369,-0.434,-0.4346,-0.4297,-0.429,-0.4291,-0.4293,-0.4288,-0.4288,-0.4277,-0.4283,-0.4298,-0.4299,-0.43,-0.43,0,-0.4448,-0.4457,-0.4403,-0.4398,-0.4396,-0.4358,-0.4353,-0.4324,-0.4328,-0.4288,-0.4279,-0.4284,-0.4251,-0.4259,-0.4222,-0.4227,-0.4165,-0.4175,-0.4171,-0.4173,-0.413,-0.4134,-0.3988,-0.3971,-0.4101,-0.4099,-0.4098,0,-0.4379,-0.4343,-0.4336,-0.4318,-0.431,-0.428,-0.4263,-0.4279,-0.426,-0.4242,-0.4215,-0.4186,-0.4163,-0.411,-0.4109,-0.4082,-0.4091,-0.4042,-0.4087,-0.4085,-0.4091,-0.4093,-0.409,-0.4033,-0.4031,-0.403,-0.4029,0,-0.4255,-0.4262,-0.4238,-0.4215,-0.4195,-0.4177,-0.4162,-0.4145,-0.416,-0.4138,-0.4106,-0.4089,-0.4054,-0.4024,-0.4,-0.3994,-0.4014,-0.4016,-0.4004,-0.3999,-0.3998,-0.3999,-0.4146,-0.4018,-0.4019,-0.402,-0.4021,-0.4021,-0.4164,-0.4136,-0.4127,-0.4099,-0.409,-0.4076,-0.4049,-0.4051,-0.4025,-0.3999,-0.401,-0.3974,-0.3963,-0.3933,-0.3924,-0.3896,-0.3915,-0.3898,-0.3894,-0.3889,-0.3885,-0.4004,-0.3892,-0.3892,-0.3892,-0.3893,-0.3893,0,-0.4043,-0.404,-0.4015,-0.3994,-0.3973,-0.3996,-0.3982,-0.3962,-0.393,-0.3919,-0.3897,-0.3862,-0.3835,-0.3834,-0.3808,-0.3786,-0.3795,-0.3779,-0.378,-0.3779,-0.3869,-0.3882,-0.3772,-0.3772,-0.3772,-0.3772,-0.3772,-0.3773,-0.3977,-0.393,-0.3937,-0.3886,-0.3883,-0.385,-0.384,-0.3827,-0.3819,-0.3779,-0.3757,-0.3758,-0.3751,-0.3726,-0.3702,-0.3702,-0.3692,-0.3672,-0.3676,-0.376,-0.3772,-0.3783,-0.3795,-0.367,-0.367,-0.3588,-0.3588,-0.3587]}]]